VK3GY-13 Weather Reports


Display with metric or nautical units.
time (UTC)temp
F
wind
direction
speed
MPH
gust
MPH
rain 1hr
in
rain 24hr
in
rain mn
in
humidity
%
barometer
mb
20260508003009 58 232 9.0 15.0 0.00 0.44 0.26 87 1021.0
20260508002011 56 238 9.0 15.0 0.00 0.44 0.26 87 1021.0
20260508001009 57 249 9.0 18.0 0.00 0.44 0.26 87 1021.1
20260508000009 58 242 7.0 13.0 0.00 0.44 0.26 87 1020.9
20260507235009 57 243 6.0 12.0 0.01 0.44 0.26 88 1020.7
20260507234009 57 240 8.0 21.0 0.01 0.44 0.26 88 1020.5
20260507233009 57 237 12.0 16.0 0.01 0.44 0.26 90 1020.6
20260507232009 56 244 7.0 12.0 0.01 0.44 0.26 90 1020.7
20260507231009 56 222 6.0 13.0 0.01 0.45 0.26 90 1020.6
20260507230009 55 243 7.0 13.0 0.01 0.45 0.26 90 1020.5
20260507225009 55 222 6.0 12.0 0.00 0.44 0.25 90 1020.3
20260507224009 55 219 8.0 15.0 0.00 0.44 0.25 90 1020.2
20260507223009 55 229 6.0 12.0 0.00 0.44 0.25 90 1019.9
20260507222009 55 248 6.0 13.0 0.00 0.44 0.25 90 1019.8
20260507221009 55 228 7.0 10.0 0.00 0.44 0.25 90 1019.9
20260507220009 55 255 4.0 10.0 0.00 0.44 0.25 90 1019.6
20260507215009 54 248 6.0 12.0 0.00 0.44 0.25 90 1019.5
20260507214009 54 238 8.0 13.0 0.00 0.44 0.25 90 1019.3
20260507213009 54 246 6.0 16.0 0.01 0.44 0.25 90 1019.1
20260507212009 54 241 7.0 14.0 0.03 0.44 0.25 90 1019.0
20260507211009 54 244 7.0 15.0 0.03 0.44 0.25 90 1018.9
20260507210009 54 242 7.0 14.0 0.03 0.44 0.25 90 1019.0
20260507205009 54 239 8.0 15.0 0.03 0.44 0.25 90 1019.0
20260507204009 55 234 10.0 18.0 0.03 0.44 0.25 90 1018.8
20260507203009 55 237 9.0 15.0 0.02 0.43 0.24 90 1018.9
20260507202011 55 247 6.0 15.0 0.00 0.41 0.22 91 1018.6
20260507201010 55 230 9.0 17.0 0.00 0.41 0.22 91 1018.5
20260507200009 55 231 10.0 18.0 0.00 0.41 0.22 91 1018.5
20260507195010 55 246 7.0 14.0 0.00 0.42 0.22 91 1018.3
20260507194009 54 247 8.0 16.0 0.02 0.43 0.22 91 1018.2
20260507193010 54 246 10.0 20.0 0.02 0.45 0.22 91 1018.0
20260507192009 55 247 10.0 20.0 0.04 0.45 0.22 91 1018.0
20260507191008 54 240 7.0 16.0 0.04 0.45 0.22 90 1017.9
20260507190009 55 232 9.0 17.0 0.04 0.45 0.22 91 1017.9
20260507185009 55 245 9.0 15.0 0.04 0.51 0.22 90 1017.8
20260507184009 55 252 5.0 13.0 0.04 0.52 0.20 90 1017.8
20260507183009 54 242 7.0 16.0 0.04 0.54 0.20 90 1017.8
20260507182009 54 262 7.0 13.0 0.03 0.52 0.18 91 1017.6
20260507181009 54 282 7.0 14.0 0.05 0.52 0.18 91 1017.5
20260507180009 54 273 6.0 14.0 0.05 0.52 0.18 91 1017.5
20260507175009 54 255 5.0 13.0 0.07 0.53 0.18 91 1017.6
20260507174008 54 271 6.0 16.0 0.06 0.51 0.16 91 1017.3
20260507173009 54 262 9.0 15.0 0.06 0.51 0.16 91 1017.3
20260507172009 54 266 8.0 17.0 0.05 0.50 0.15 91 1017.2
20260507171009 54 280 8.0 16.0 0.05 0.49 0.13 90 1017.2
20260507170009 54 276 8.0 17.0 0.05 0.50 0.13 90 1017.2
20260507165009 54 265 7.0 14.0 0.03 0.48 0.11 90 1017.2
20260507164009 54 273 8.0 15.0 0.06 0.47 0.10 90 1017.0
20260507163009 54 275 9.0 17.0 0.06 0.47 0.10 90 1017.1
20260507162011 53 270 9.0 17.0 0.07 0.48 0.10 91 1017.2
20260507161009 53 273 9.0 18.0 0.05 0.46 0.08 91 1017.2
20260507160008 53 264 10.0 20.0 0.06 0.46 0.08 91 1017.3
20260507155009 53 262 9.0 18.0 0.06 0.46 0.08 91 1017.4
20260507154010 53 267 8.0 18.0 0.03 0.42 0.04 91 1017.4
20260507153009 53 277 10.0 18.0 0.03 0.42 0.04 91 1017.3
20260507152009 53 265 11.0 21.0 0.02 0.41 0.03 90 1017.5
20260507151009 53 267 10.0 20.0 0.03 0.41 0.03 90 1017.4
20260507150009 53 279 8.0 17.0 0.02 0.40 0.02 90 1017.6
20260507145009 53 278 10.0 18.0 0.02 0.40 0.02 90 1017.7
20260507144008 53 271 9.0 17.0 0.01 0.39 0.01 90 1017.6
20260507143009 53 271 7.0 17.0 0.01 0.39 0.01 90 1017.8
20260507142009 53 262 10.0 17.0 0.01 0.39 0.01 90 1017.7
20260507141009 52 263 10.0 20.0 0.00 0.38 0.00 90 1017.9
20260507140009 52 276 8.0 15.0 0.01 0.38 0.00 90 1017.9
20260507135009 52 267 9.0 20.0 0.01 0.38 0.38 90 1018.0
20260507134009 52 271 10.0 18.0 0.01 0.38 0.38 90 1018.1
20260507133009 52 271 7.0 16.0 0.01 0.38 0.38 90 1018.3
20260507132011 52 285 8.0 20.0 0.01 0.38 0.38 90 1018.3
20260507131009 52 277 11.0 20.0 0.01 0.38 0.38 90 1018.4
20260507130009 52 272 10.0 17.0 0.00 0.37 0.37 90 1018.6
20260507125011 52 271 10.0 18.0 0.00 0.37 0.37 89 1018.9
20260507124008 52 273 10.0 20.0 0.00 0.37 0.37 89 1019.0
20260507123010 52 272 9.0 18.0 0.00 0.37 0.37 89 1019.1
20260507122009 52 280 9.0 18.0 0.00 0.37 0.37 89 1019.2
20260507121008 52 270 10.0 17.0 0.00 0.37 0.37 89 1019.3
20260507120009 52 279 9.0 17.0 0.00 0.37 0.37 89 1019.3
20260507115009 52 277 9.0 17.0 0.00 0.37 0.37 89 1019.4
20260507114009 51 285 9.0 18.0 0.00 0.37 0.37 89 1019.4
20260507113009 51 273 9.0 18.0 0.00 0.37 0.37 89 1019.3
20260507112009 51 267 8.0 16.0 0.01 0.37 0.37 89 1019.4
20260507111009 51 289 8.0 14.0 0.01 0.38 0.37 89 1019.4
20260507110009 51 275 8.0 17.0 0.01 0.38 0.37 89 1019.4
20260507105009 51 276 9.0 17.0 0.02 0.38 0.37 89 1019.4
20260507104008 51 275 6.0 15.0 0.02 0.38 0.37 89 1019.4
20260507103009 51 275 8.0 15.0 0.02 0.38 0.37 89 1019.8
20260507102011 51 275 8.0 16.0 0.01 0.38 0.36 88 1020.0
20260507101009 51 275 9.0 16.0 0.02 0.39 0.36 88 1020.0
20260507100009 51 256 7.0 14.0 0.02 0.45 0.36 87 1020.2
20260507095008 51 244 7.0 12.0 0.01 0.53 0.35 86 1020.2
20260507094009 52 259 3.0 10.0 0.01 0.54 0.35 85 1020.3
20260507093009 52 263 7.0 13.0 0.01 0.54 0.35 85 1020.1
20260507092009 52 245 4.0 14.0 0.01 0.55 0.35 85 1020.0
20260507091009 52 250 3.0 12.0 0.00 0.58 0.34 85 1020.2
20260507090008 52 221 5.0 14.0 0.00 0.63 0.34 84 1020.1
20260507085009 52 250 5.0 12.0 0.00 0.65 0.34 85 1020.0
20260507084009 51 243 8.0 13.0 0.00 0.65 0.34 86 1020.0
20260507083009 51 249 6.0 12.0 0.01 0.66 0.34 87 1019.8
20260507082008 50 241 4.0 8.0 0.02 0.70 0.34 87 1020.0
20260507081009 50 237 5.0 12.0 0.05 0.77 0.34 87 1019.9
20260507080009 50 238 5.0 12.0 0.05 0.77 0.34 87 1019.9
20260507075009 50 214 3.0 8.0 0.05 0.77 0.34 87 1019.8
20260507074009 50 296 1.0 5.0 0.05 0.79 0.34 87 1019.8
20260507073009 50 316 2.0 3.0 0.04 0.80 0.33 86 1019.7
20260507072011 50 317 2.0 5.0 0.03 0.79 0.32 86 1019.6
20260507071009 50 319 2.0 9.0 0.00 0.76 0.29 85 1019.6
20260507070012 51 298 3.0 9.0 0.00 0.76 0.29 85 1019.7
20260507065009 51 268 4.0 10.0 0.00 0.76 0.29 84 1019.6
20260507064009 51 269 3.0 8.0 0.01 0.76 0.29 84 1019.7
20260507063009 51 264 3.0 9.0 0.01 0.76 0.29 83 1019.7
20260507062009 51 267 3.0 9.0 0.01 0.76 0.29 83 1019.8
20260507061009 51 241 6.0 10.0 0.01 0.76 0.29 82 1019.8
20260507060009 51 249 5.0 10.0 0.01 0.76 0.29 82 1020.0
20260507055009 52 241 6.0 14.0 0.01 0.76 0.29 80 1020.1
20260507054009 52 228 6.0 13.0 0.00 0.75 0.28 80 1020.1
20260507053009 51 242 5.0 10.0 0.00 0.75 0.28 80 1019.9
20260507052010 52 247 5.0 16.0 0.00 0.75 0.28 79 1020.0
20260507051009 52 226 9.0 18.0 0.00 0.75 0.28 76 1020.2
20260507050009 53 225 9.0 17.0 0.00 0.75 0.28 70 1019.8
20260507045009 53 231 11.0 17.0 0.00 0.75 0.28 70 1019.8
20260507044009 54 229 9.0 13.0 0.00 0.75 0.28 71 1019.9
20260507043009 54 217 7.0 18.0 0.00 0.75 0.28 71 1019.9
20260507042009 54 233 7.0 16.0 0.00 0.75 0.28 74 1019.9
20260507041009 54 241 7.0 13.0 0.00 0.75 0.28 73 1019.8
20260507040009 53 232 6.0 20.0 0.04 0.75 0.28 73 1019.8
20260507035009 53 214 10.0 23.0 0.04 0.75 0.28 71 1019.9
20260507034009 52 229 10.0 18.0 0.04 0.75 0.28 77 1019.8
20260507033009 52 220 5.0 12.0 0.04 0.75 0.28 82 1019.8
20260507032009 52 246 4.0 12.0 0.04 0.75 0.28 79 1019.9
20260507031009 53 244 7.0 13.0 0.04 0.75 0.28 73 1019.9
20260507030009 54 235 9.0 14.0 0.00 0.71 0.24 69 1019.8
20260507025009 53 227 9.0 20.0 0.00 0.71 0.24 69 1019.9
20260507024009 53 204 12.0 21.0 0.00 0.71 0.24 69 1019.9
20260507023009 52 232 8.0 18.0 0.00 0.71 0.24 70 1019.9
20260507022009 53 210 10.0 22.0 0.00 0.71 0.24 68 1020.0
20260507021009 53 212 9.0 18.0 0.04 0.71 0.24 74 1020.0
20260507020009 52 210 7.0 15.0 0.04 0.71 0.24 78 1020.0
20260507015009 51 217 6.0 12.0 0.04 0.71 0.24 82 1019.9
20260507014009 49 229 6.0 12.0 0.04 0.71 0.24 82 1020.0
20260507013009 48 221 4.0 15.0 0.04 0.71 0.24 81 1020.2
20260507012010 50 229 8.0 18.0 0.04 0.71 0.24 77 1020.3
20260507011009 52 173 3.0 9.0 0.00 0.67 0.20 78 1019.7
20260507010009 51 200 7.0 12.0 0.00 0.67 0.20 78 1019.8
20260507005009 51 156 7.0 12.0 0.00 0.67 0.20 77 1020.0
20260507004009 50 143 8.0 17.0 0.00 0.67 0.20 74 1020.0